When you browse on this site, cookies collect data to enhance your experience and personalize the content and advertising you see.
Visit our Privacy Policy to learn more. By continuing to use the site, you agree to this use of cookies and data.
  • In Czech Republic
  • List of Countries
  • For 7 days
  • Water Temperature
  • Satellite Maps
  • Weather Map
  • Weather Widgets
  • user-avatar
    Login

    Hourly Weather Pecs

    Today, 17 January, Thursday

    Time Temperature Precipitation Wind Pressure Humidity
    00:00 +3°C° 0 mm 4 mps 741 mmHg 83%
    01:00 +2°C° 0 mm 5 mps 741 mmHg 81%
    02:00 +2°C° 0 mm 5 mps 740 mmHg 82%
    03:00 +2°C° 0 mm 5 mps 740 mmHg 82%
    04:00 +2°C° 0 mm 5 mps 740 mmHg 83%
    05:00 +2°C° 0 mm 5 mps 740 mmHg 83%
    06:00 +2°C° 0 mm 5 mps 740 mmHg 83%
    07:00 +3°C° 0 mm 4 mps 740 mmHg 85%
    08:00 +3°C° 0 mm 5 mps 740 mmHg 80%
    09:00 +4°C° 0 mm 6 mps 740 mmHg 76%
    10:00 +7°C° 0 mm 6 mps 741 mmHg 71%
    11:00 +7°C° 0 mm 6 mps 741 mmHg 68%
    12:00 +8°C° 0 mm 6 mps 741 mmHg 66%
    13:00 +9°C° 0 mm 7 mps 740 mmHg 63%
    14:00 +8°C° 0 mm 6 mps 740 mmHg 64%
    15:00 +8°C° 0 mm 5 mps 740 mmHg 64%
    16:00 +7°C° 0 mm 4 mps 740 mmHg 65%
    17:00 +6°C° 0 mm 4 mps 740 mmHg 68%
    18:00 +5°C° 0 mm 4 mps 739 mmHg 71%
    19:00 +4°C° 0 mm 4 mps 739 mmHg 74%
    20:00 +4°C° 0 mm 3 mps 739 mmHg 75%
    21:00 +4°C° 0 mm 3 mps 739 mmHg 76%
    22:00 +4°C° 0 mm 3 mps 739 mmHg 77%
    23:00 +4°C° 0 mm 3 mps 739 mmHg 78%

    Tomorrow, 18 January, Friday

    Time Temperature Precipitation Wind Pressure Humidity
    00:00 +3°C° 0 mm 3 mps 739 mmHg 80%
    01:00 +4°C° 0 mm 2 mps 739 mmHg 82%
    02:00 +4°C° 0 mm 2 mps 739 mmHg 83%
    03:00 +4°C° 0 mm 1 mps 739 mmHg 84%
    04:00 +4°C° 0 mm 1 mps 739 mmHg 85%
    05:00 +3°C° 1 mm 2 mps 739 mmHg 85%
    06:00 +2°C° 1 mm 3 mps 739 mmHg 86%
    07:00 +1°C° 1 mm 4 mps 739 mmHg 87%
    08:00 +1°C° 0.8 mm 4 mps 740 mmHg 85%
    09:00 +1°C° 0.8 mm 4 mps 740 mmHg 83%
    10:00 +1°C° 0.8 mm 4 mps 741 mmHg 81%
    11:00 +1°C° 0.4 mm 4 mps 741 mmHg 79%
    12:00 +1°C° 0.4 mm 5 mps 742 mmHg 78%
    13:00 +1°C° 0.4 mm 5 mps 742 mmHg 76%
    14:00 +1°C° 0.1 mm 4 mps 743 mmHg 76%
    15:00 +1°C° 0.1 mm 4 mps 743 mmHg 75%
    16:00 +2°C° 0.1 mm 3 mps 744 mmHg 75%
    17:00 +1°C° 0 mm 3 mps 744 mmHg 76%
    18:00 +2°C° 0 mm 2 mps 745 mmHg 77%
    19:00 +2°C° 0 mm 2 mps 745 mmHg 77%
    20:00 +1°C° 0 mm 2 mps 745 mmHg 78%
    21:00 +1°C° 0 mm 2 mps 746 mmHg 78%
    22:00 +1°C° 0 mm 2 mps 746 mmHg 79%
    23:00 -1°C° 0 mm 2 mps 746 mmHg 78%

    Day after tomorrow, 19 January, Saturday

    Time Temperature Precipitation Wind Pressure Humidity
    00:00 -1°C° 0 mm 2 mps 746 mmHg 78%
    01:00 -2°C° 0 mm 2 mps 746 mmHg 78%
    02:00 -2°C° 0 mm 2 mps 746 mmHg 77%
    03:00 -3°C° 0 mm 2 mps 746 mmHg 77%
    04:00 -3°C° 0 mm 2 mps 746 mmHg 77%
    05:00 -3°C° 0 mm 2 mps 746 mmHg 78%
    06:00 -3°C° 0 mm 2 mps 746 mmHg 79%
    07:00 -1°C° 0 mm 1 mps 746 mmHg 80%
    08:00 -3°C° 0 mm 2 mps 746 mmHg 77%
    09:00 -2°C° 0 mm 2 mps 747 mmHg 74%
    10:00 -1°C° 0 mm 3 mps 747 mmHg 70%
    11:00 0°C° 0 mm 3 mps 746 mmHg 68%
    12:00 +1°C° 0 mm 3 mps 746 mmHg 65%
    13:00 +1°C° 0 mm 3 mps 745 mmHg 63%
    14:00 +1°C° 0 mm 3 mps 745 mmHg 65%
    15:00 +1°C° 0 mm 3 mps 745 mmHg 66%
    16:00 +2°C° 0 mm 2 mps 744 mmHg 67%
    17:00 +1°C° 0.2 mm 2 mps 744 mmHg 70%
    18:00 0°C° 0.2 mm 3 mps 744 mmHg 72%
    19:00 -1°C° 0.2 mm 3 mps 744 mmHg 75%
    20:00 -1°C° 0.2 mm 3 mps 744 mmHg 79%
    21:00 -1°C° 0.2 mm 3 mps 744 mmHg 83%
    22:00 -2°C° 0.2 mm 3 mps 744 mmHg 87%
    23:00 -2°C° 0.1 mm 2 mps 744 mmHg 89%

    20 January, Sunday

    Time Temperature Precipitation Wind Pressure Humidity
    00:00 -2°C° 0.1 mm 2 mps 743 mmHg 90%
    01:00 -2°C° 0.1 mm 2 mps 743 mmHg 92%
    02:00 -2°C° 0.1 mm 2 mps 743 mmHg 92%
    03:00 0°C° 0.1 mm 1 mps 742 mmHg 93%
    04:00 0°C° 0.1 mm 1 mps 742 mmHg 94%
    05:00 0°C° 0.1 mm 1 mps 742 mmHg 94%
    06:00 0°C° 0.1 mm 1 mps 742 mmHg 95%
    07:00 0°C° 0.1 mm 1 mps 742 mmHg 95%
    08:00 0°C° 0 mm 1 mps 743 mmHg 93%
    09:00 +1°C° 0 mm 1 mps 743 mmHg 90%
    10:00 +1°C° 0 mm 1 mps 743 mmHg 88%
    11:00 +2°C° 0 mm 1 mps 743 mmHg 86%
    12:00 +2°C° 0 mm 1 mps 743 mmHg 85%
    13:00 +2°C° 0 mm 2 mps 743 mmHg 83%
    14:00 +1°C° 0 mm 2 mps 743 mmHg 83%
    15:00 +1°C° 0 mm 2 mps 743 mmHg 84%
    16:00 +1°C° 0 mm 2 mps 743 mmHg 84%
    17:00 +2°C° 0 mm 1 mps 743 mmHg 85%
    18:00 +1°C° 0 mm 1 mps 744 mmHg 85%
    19:00 +1°C° 0 mm 1 mps 744 mmHg 86%
    20:00 +1°C° 0 mm 1 mps 744 mmHg 87%
    21:00 0°C° 0 mm 1 mps 745 mmHg 88%
    22:00 -1°C° 0 mm 1 mps 745 mmHg 88%
    23:00 -1°C° 0 mm 1 mps 745 mmHg 89%

    21 January, Monday

    Time Temperature Precipitation Wind Pressure Humidity
    00:00 -1°C° 0 mm 1 mps 745 mmHg 89%
    01:00 -3°C° 0 mm 2 mps 745 mmHg 89%
    02:00 -4°C° 0 mm 2 mps 745 mmHg 89%
    03:00 -2°C° 0 mm 1 mps 745 mmHg 88%
    04:00 -2°C° 0 mm 1 mps 746 mmHg 88%
    05:00 -2°C° 0 mm 1 mps 746 mmHg 87%
    06:00 -2°C° 0 mm 1 mps 746 mmHg 87%
    07:00 -2°C° 0 mm 1 mps 746 mmHg 86%
    08:00 -3°C° 0 mm 2 mps 747 mmHg 80%
    09:00 -2°C° 0 mm 2 mps 747 mmHg 73%
    10:00 -2°C° 0 mm 2 mps 748 mmHg 67%
    11:00 -1°C° 0 mm 2 mps 747 mmHg 62%
    12:00 +1°C° 0 mm 2 mps 747 mmHg 56%
    13:00 +1°C° 0 mm 2 mps 747 mmHg 51%
    14:00 +2°C° 0 mm 1 mps 747 mmHg 54%
    15:00 +1°C° 0 mm 1 mps 747 mmHg 58%
    16:00 +1°C° 0 mm 1 mps 746 mmHg 62%
    17:00 0°C° 0 mm 1 mps 746 mmHg 67%
    18:00 -1°C° 0 mm 1 mps 746 mmHg 72%
    19:00 -1°C° 0 mm 1 mps 746 mmHg 77%
    20:00 -1°C° 0 mm 1 mps 746 mmHg 80%
    21:00 -1°C° 0 mm 1 mps 746 mmHg 83%
    22:00 -4°C° 0 mm 2 mps 746 mmHg 86%
    23:00 -4°C° 0 mm 2 mps 746 mmHg 86%

    22 January, Tuesday

    Time Temperature Precipitation Wind Pressure Humidity
    00:00 -4°C° 0 mm 2 mps 745 mmHg 86%
    01:00 -4°C° 0 mm 2 mps 745 mmHg 86%
    02:00 -4°C° 0 mm 2 mps 744 mmHg 84%
    03:00 -4°C° 0 mm 2 mps 744 mmHg 82%
    04:00 -4°C° 0 mm 2 mps 743 mmHg 80%
    05:00 -4°C° 0 mm 2 mps 743 mmHg 80%
    06:00 -4°C° 0 mm 2 mps 743 mmHg 80%
    07:00 -5°C° 0 mm 3 mps 742 mmHg 80%
    08:00 -5°C° 0.1 mm 3 mps 742 mmHg 81%
    09:00 -4°C° 0.1 mm 3 mps 742 mmHg 81%
    10:00 -4°C° 0.1 mm 3 mps 742 mmHg 82%
    11:00 -4°C° 0.1 mm 3 mps 741 mmHg 81%
    12:00 -2°C° 0.1 mm 3 mps 740 mmHg 80%
    13:00 -2°C° 0.1 mm 2 mps 740 mmHg 79%
    14:00 -2°C° 0 mm 2 mps 739 mmHg 80%
    15:00 -2°C° 0 mm 2 mps 739 mmHg 81%
    16:00 0°C° 0 mm 1 mps 738 mmHg 82%
    17:00 -1°C° 0 mm 1 mps 738 mmHg 83%
    18:00 -1°C° 0 mm 1 mps 738 mmHg 85%
    19:00 -1°C° 0 mm 1 mps 738 mmHg 86%
    20:00 -1°C° 0 mm 1 mps 737 mmHg 86%
    21:00 -1°C° 0 mm 1 mps 737 mmHg 86%
    22:00 -1°C° 0 mm 1 mps 737 mmHg 87%
    23:00 -2°C° 0 mm 1 mps 737 mmHg 89%
    Show more